Weather History for Bentonville, AR

Change the Weather History Date:

Tuesday, January 7, 2014

  Actual Average Record
Temperature  
Mean Temperature 19 °F -  
Max Temperature 37 °F 43 °F 71 °F (1965)
Min Temperature 1 °F 20 °F -4 °F (1968)
Degree Days  
Heating Degree Days 46    
Moisture  
Dew Point 9 °F    
Average Humidity 55    
Maximum Humidity 78    
Minimum Humidity 44    
Precipitation  
Precipitation 0.00 in - - ()
Sea Level Pressure  
Sea Level Pressure 30.29 in    
Wind  
Wind Speed 7 mph (South)    
Max Wind Speed 15 mph    
Max Gust Speed 23 mph    
Visibility 10 miles    
Events      
Averages and records for this station are not official NWS values.
T = Trace of Precipitation, MM = Missing Value Source: NWS Daily Summary

Daily Weather History Graph

Daily Weather History Graph

Search for Another Location

Airport:

Trip Planner

Search our weather history database for the weather conditions in past years. The results will help you decide how hot, cold, wet, or windy it might be!

Date:

Astronomy

Jan. 07, 2014 Rise Set
Actual Time 7:28 AM CST 5:17 PM CST
Civil Twilight 7:00 AM CST 5:46 PM CST
Nautical Twilight 6:28 AM CST 6:18 PM CST
Astronomical Twilight 5:57 AM CST 6:49 PM CST
Moon 11:30 AM CST (1/7) No Moon Set
Length of Visible Light 10h 45m
Length of Day
9h 48m
Waxing Crescent, 46% of the Moon is Illuminated
Jan 7
Waxing Crescent
Jan 7
First Quarter
Jan 15
Full
Jan 23
Last Quarter
Jan 30
New

Hourly Weather History & Observations

Time (CST) Temp. Windchill Dew Point Humidity Pressure Visibility Wind Dir Wind Speed Gust Speed Precip Events Conditions
12:15 AM 1.4 °F -9.9 °F -5.8 °F 72% 30.43 in 10.0 mi South 5.8 mph - N/A   Clear
12:35 AM 1.4 °F -8.3 °F -4.0 °F 78% 30.42 in 10.0 mi SSE 4.6 mph - N/A   Clear
12:55 AM 3.2 °F -4.2 °F -4.0 °F 72% 30.42 in 10.0 mi South 3.5 mph - N/A   Clear
1:15 AM 3.2 °F -4.2 °F -5.8 °F 66% 30.41 in 10.0 mi South 3.5 mph - N/A   Clear
1:35 AM 1.4 °F -8.3 °F -4.0 °F 78% 30.40 in 10.0 mi SSE 4.6 mph - N/A   Clear
1:55 AM 3.2 °F - -5.8 °F 66% 30.41 in 10.0 mi Calm Calm - N/A   Clear
2:15 AM 1.4 °F - -4.0 °F 78% 30.41 in 10.0 mi Calm Calm - N/A   Clear
2:35 AM 3.2 °F -6.2 °F -2.2 °F 78% 30.41 in 10.0 mi SSE 4.6 mph - N/A   Clear
2:55 AM 1.4 °F -11.3 °F -5.8 °F 72% 30.40 in 10.0 mi SSE 6.9 mph - N/A   Clear
3:15 AM 3.2 °F -6.2 °F -5.8 °F 66% 30.40 in 10.0 mi SSE 4.6 mph - N/A   Clear
3:35 AM 3.2 °F -6.2 °F -2.2 °F 78% 30.39 in 10.0 mi South 4.6 mph - N/A   Clear
3:55 AM 3.2 °F -7.8 °F -4.0 °F 72% 30.38 in 10.0 mi SSE 5.8 mph - N/A   Clear
4:15 AM 5.0 °F -5.6 °F -2.2 °F 72% 30.38 in 10.0 mi SSE 5.8 mph - N/A   Clear
4:35 AM 5.0 °F -4.1 °F -2.2 °F 72% 30.37 in 10.0 mi SSE 4.6 mph - N/A   Clear
4:55 AM 6.8 °F -4.8 °F -2.2 °F 67% 30.36 in 10.0 mi South 6.9 mph - N/A   Clear
5:15 AM 6.8 °F -3.5 °F -2.2 °F 67% 30.35 in 10.0 mi South 5.8 mph - N/A   Clear
5:35 AM 8.6 °F -1.3 °F -0.4 °F 67% 30.34 in 10.0 mi South 5.8 mph - N/A   Clear
5:55 AM 8.6 °F -1.3 °F -0.4 °F 67% 30.35 in 10.0 mi South 5.8 mph - N/A   Clear
6:15 AM 8.6 °F -1.3 °F -2.2 °F 62% 30.34 in 10.0 mi South 5.8 mph - N/A   Clear
6:35 AM 8.6 °F -1.3 °F -0.4 °F 67% 30.34 in 10.0 mi South 5.8 mph - N/A   Clear
6:55 AM 10.4 °F 0.8 °F 1.4 °F 67% 30.33 in 10.0 mi South 5.8 mph - N/A   Clear
7:15 AM 12.2 °F 0.7 °F 1.4 °F 62% 30.33 in 10.0 mi South 8.1 mph - N/A   Clear
7:35 AM 12.2 °F 0.7 °F 1.4 °F 62% 30.34 in 10.0 mi South 8.1 mph - N/A   Clear
7:55 AM 12.2 °F 2.9 °F 1.4 °F 62% 30.34 in 10.0 mi South 5.8 mph - N/A   Clear
8:15 AM 15.8 °F 5.1 °F 3.2 °F 58% 30.34 in 10.0 mi South 8.1 mph - N/A   Clear
8:35 AM 17.6 °F 6.4 °F 3.2 °F 53% 30.35 in 10.0 mi South 9.2 mph - N/A   Clear
8:55 AM 17.6 °F 5.0 °F 3.2 °F 53% 30.34 in 10.0 mi SSW 11.5 mph - N/A   Clear
9:15 AM 19.4 °F 6.6 °F 6.8 °F 58% 30.35 in 10.0 mi SSW 12.7 mph - N/A   Clear
9:35 AM 21.2 °F 10.9 °F 6.8 °F 54% 30.35 in 10.0 mi SSW 9.2 mph - N/A   Clear
9:55 AM 24.8 °F 14.0 °F 8.6 °F 50% 30.35 in 10.0 mi SSW 11.5 mph 17.3 mph N/A   Clear
10:15 AM 26.6 °F 16.2 °F 8.6 °F 47% 30.35 in 10.0 mi SSW 11.5 mph 16.1 mph N/A   Clear
10:35 AM 26.6 °F 16.8 °F 10.4 °F 51% 30.34 in 10.0 mi SSW 10.4 mph - N/A   Clear
10:55 AM 28.4 °F 19.7 °F 10.4 °F 47% 30.33 in 10.0 mi SSW 9.2 mph 21.9 mph N/A   Clear
11:15 AM 28.4 °F 17.5 °F 10.4 °F 47% 30.32 in 10.0 mi SSW 13.8 mph 20.7 mph N/A   Clear
11:35 AM 30.2 °F 19.8 °F 12.2 °F 47% 30.30 in 10.0 mi SSW 13.8 mph 20.7 mph N/A   Clear
11:55 AM 30.2 °F 19.8 °F 12.2 °F 47% 30.29 in 10.0 mi SSW 13.8 mph 23.0 mph N/A   Clear
12:15 PM 32.0 °F 22.5 °F 14.0 °F 48% 30.27 in 10.0 mi South 12.7 mph - N/A   Clear
12:35 PM 32.0 °F 22.1 °F 14.0 °F 48% 30.25 in 10.0 mi South 13.8 mph 18.4 mph N/A   Clear
12:55 PM 33.8 °F 25.3 °F 14.0 °F 44% 30.24 in 10.0 mi South 11.5 mph 16.1 mph N/A   Clear
1:15 PM 33.8 °F 24.8 °F 15.8 °F 48% 30.22 in 10.0 mi SSW 12.7 mph 20.7 mph N/A   Clear
1:35 PM 35.6 °F 26.2 °F 15.8 °F 44% 30.21 in 10.0 mi SSW 15.0 mph 20.7 mph N/A   Clear
1:55 PM 35.6 °F 27.5 °F 15.8 °F 44% 30.21 in 10.0 mi SSW 11.5 mph 18.4 mph N/A   Clear
2:15 PM 37.4 °F 30.3 °F 17.6 °F 45% 30.20 in 10.0 mi SW 10.4 mph 16.1 mph N/A   Clear
2:35 PM 37.4 °F 28.9 °F 17.6 °F 45% 30.20 in 10.0 mi SSW 13.8 mph 17.3 mph N/A   Clear
2:55 PM 37.4 °F 29.3 °F 17.6 °F 45% 30.20 in 10.0 mi SSW 12.7 mph 17.3 mph N/A   Clear
3:15 PM 37.4 °F 28.5 °F 17.6 °F 45% 30.20 in 10.0 mi SSW 15.0 mph 20.7 mph N/A   Clear
3:35 PM 37.4 °F 28.9 °F 17.6 °F 45% 30.20 in 10.0 mi SSW 13.8 mph 19.6 mph N/A   Clear
3:55 PM 37.4 °F 28.9 °F 17.6 °F 45% 30.20 in 10.0 mi SW 13.8 mph 20.7 mph N/A   Clear
4:15 PM 37.4 °F 28.9 °F 17.6 °F 45% 30.20 in 10.0 mi SSW 13.8 mph 19.6 mph N/A   Clear
4:35 PM 37.4 °F 28.5 °F 17.6 °F 45% 30.20 in 10.0 mi SSW 15.0 mph 20.7 mph N/A   Clear
4:55 PM 37.4 °F 29.3 °F 17.6 °F 45% 30.19 in 10.0 mi SSW 12.7 mph 18.4 mph N/A   Clear
5:15 PM 35.6 °F 28.0 °F 17.6 °F 48% 30.19 in 10.0 mi South 10.4 mph - N/A   Clear
5:35 PM 35.6 °F 28.6 °F 17.6 °F 48% 30.19 in 10.0 mi SSW 9.2 mph - N/A   Clear
5:55 PM 33.8 °F 27.0 °F 17.6 °F 52% 30.20 in 10.0 mi South 8.1 mph - N/A   Clear
6:15 PM 33.8 °F 26.4 °F 17.6 °F 52% 30.20 in 10.0 mi SSW 9.2 mph - N/A   Clear
6:35 PM 33.8 °F 26.4 °F 15.8 °F 48% 30.19 in 10.0 mi South 9.2 mph - N/A   Clear
6:55 PM 33.8 °F 27.0 °F 15.8 °F 48% 30.19 in 10.0 mi South 8.1 mph - N/A   Clear
7:15 PM 33.8 °F 27.0 °F 15.8 °F 48% 30.19 in 10.0 mi South 8.1 mph - N/A   Clear
7:35 PM 33.8 °F 26.4 °F 15.8 °F 48% 30.19 in 10.0 mi SSW 9.2 mph - N/A   Clear
7:55 PM 33.8 °F 27.0 °F 15.8 °F 48% 30.19 in 10.0 mi South 8.1 mph - N/A   Clear
8:15 PM 30.2 °F 24.3 °F 15.8 °F 55% 30.20 in 10.0 mi South 5.8 mph - N/A   Clear
8:35 PM 32.0 °F 24.8 °F 15.8 °F 51% 30.20 in 10.0 mi South 8.1 mph - N/A   Clear
8:55 PM 33.8 °F 26.4 °F 15.8 °F 48% 30.20 in 10.0 mi South 9.2 mph - N/A   Clear
9:15 PM 33.8 °F 27.7 °F 15.8 °F 48% 30.21 in 10.0 mi South 6.9 mph - N/A   Clear
9:35 PM 32.0 °F 24.2 °F 15.8 °F 51% 30.21 in 10.0 mi SSW 9.2 mph - N/A   Clear
9:55 PM 32.0 °F 25.6 °F 15.8 °F 51% 30.21 in 10.0 mi SSW 6.9 mph - N/A   Clear
10:15 PM 32.0 °F 24.8 °F 15.8 °F 51% 30.22 in 10.0 mi SSW 8.1 mph - N/A   Clear
10:35 PM 32.0 °F 24.2 °F 15.8 °F 51% 30.22 in 10.0 mi SSW 9.2 mph - N/A   Clear
10:55 PM 33.8 °F 25.8 °F 14.0 °F 44% 30.22 in 10.0 mi SSW 10.4 mph - N/A   Clear
11:15 PM 33.8 °F 26.4 °F 14.0 °F 44% 30.22 in 10.0 mi SSW 9.2 mph - N/A   Clear
11:35 PM 32.0 °F 23.6 °F 14.0 °F 48% 30.22 in 10.0 mi SSW 10.4 mph - N/A   Clear
11:55 PM 32.0 °F 24.8 °F 14.0 °F 48% 30.22 in 10.0 mi South 8.1 mph - N/A   Clear